GFSSGP_700_temp_036.txt.gz
Temp
5 5 6 6 7 7 9 10 11 10 10 10 10 11 11 11 12 12 11 11 12 11 11 11 11 10 10 10 10 10 10 10 10 10 10 10 10 10 10 10 10 10 10 9 9 9 9 9 9
4 5 5 6 6 8 9 10 10 10 9 9 10 11 11 10 11 11 11 11 11 11 11 11 11 10 10 10 10 10 10 9 9 9 9 10 10 10 9 9 9 9 9 9 9 9 9 9 9
4 4 5 5 6 7 10 11 10 9 9 9 9 10 10 9 10 11 11 11 11 11 11 11 11 10 10 10 10 10 10 9 9 9 9 9 9 9 9 9 9 9 9 9 9 9 9 9 9
2 4 4 5 7 8 9 10 9 9 9 9 9 9 9 9 10 10 11 11 11 11 11 11 11 10 10 10 10 10 10 9 9 9 9 9 9 9 9 9 9 9 9 9 9 8 8 8 8
2 3 3 5 6 8 9 9 9 9 9 9 9 9 9 9 10 10 10 11 11 11 11 11 11 10 10 10 10 10 9 9 9 9 9 8 8 8 8 8 8 8 8 8 8 8 8 8 8
2 2 3 4 6 7 8 8 8 8 8 9 9 9 9 9 9 10 10 10 10 11 11 10 10 10 10 10 10 10 9 9 9 9 9 9 8 8 8 8 8 8 8 8 8 8 8 8 8
1 2 2 4 6 7 8 8 8 7 8 8 9 9 9 9 9 10 10 10 10 10 10 10 10 10 10 10 10 10 9 9 9 9 9 9 9 8 8 8 8 8 8 8 8 8 7 7 7
3 1 2 4 5 7 8 8 7 7 8 8 8 8 7 9 9 10 10 10 10 10 10 10 10 10 10 10 10 10 9 9 9 9 9 9 8 8 8 8 8 8 8 8 8 7 7 7 7
2 1 1 4 5 7 8 8 7 7 7 7 8 8 8 8 9 9 10 10 10 10 10 10 9 9 9 9 9 9 9 9 9 9 9 9 8 8 8 8 8 8 8 8 7 7 7 7 7
0 1 2 4 6 6 7 7 6 6 7 7 7 8 8 8 8 9 9 9 9 9 9 9 9 9 9 9 9 9 9 9 9 9 9 9 8 8 8 8 8 8 8 8 7 7 7 7 7
1 2 3 3 4 4 5 6 6 6 7 7 7 8 8 8 8 8 8 8 8 8 9 9 8 8 8 9 8 8 8 9 9 9 8 8 8 8 8 8 8 8 8 8 7 7 7 7 7
2 3 3 3 2 2 5 5 6 6 6 7 7 6 8 8 8 8 8 8 8 8 8 8 8 8 8 8 8 8 8 8 8 8 8 8 8 8 8 8 8 8 8 7 7 7 7 7 7
1 2 3 4 3 4 5 5 5 5 6 6 6 7 7 8 8 8 8 8 8 8 8 8 8 8 8 8 8 8 8 8 8 8 8 8 8 8 8 8 8 8 8 7 7 7 7 7 7
1 2 2 3 3 3 4 5 4 5 5 5 6 6 7 7 7 7 8 7 7 7 7 7 7 7 7 7 7 7 7 7 7 7 7 7 7 7 7 7 7 7 7 7 7 7 7 7 7
0 1 1 2 2 3 3 4 4 4 4 4 6 6 7 7 7 7 7 8 7 7 7 7 7 7 7 7 7 7 7 7 7 7 6 6 6 6 6 7 7 6 6 7 6 7 6 7 6
0 1 1 2 1 3 3 4 4 5 4 4 4 5 6 7 6 7 7 7 7 6 6 7 7 7 7 7 6 7 6 6 6 6 6 6 6 6 6 6 6 6 6 6 6 6 6 6 6
-0 0 1 1 2 3 3 3 4 4 4 4 4 5 5 5 6 7 7 7 7 7 7 6 6 7 7 6 6 6 6 6 6 6 5 5 5 5 5 5 5 5 6 5 5 5 6 5 5
0 1 1 1 2 2 2 2 3 3 3 4 5 5 5 6 6 7 7 6 6 7 7 7 6 6 6 6 6 6 6 6 6 6 6 5 5 5 5 5 5 5 5 5 5 5 5 5 5
1 1 2 2 3 3 3 1 3 3 3 4 5 5 6 6 6 5 6 7 7 7 8 8 7 7 6 6 5 5 5 5 5 5 5 5 5 5 5 4 4 4 4 4 4 4 4 4 4
2 2 2 3 3 2 2 2 2 3 3 5 5 5 5 5 4 3 5 7 7 7 7 7 7 6 6 6 6 5 5 6 6 5 5 4 4 5 5 4 4 4 4 4 4 4 4 4 4
1 2 2 2 1 1 2 2 2 3 4 5 5 6 6 5 5 5 6 7 7 7 7 7 6 6 6 6 6 6 5 5 6 6 6 5 4 4 4 4 4 4 3 3 4 3 3 3 3
1 1 2 1 1 1 2 2 5 5 5 5 5 5 5 5 5 5 6 6 6 6 6 6 6 6 6 6 6 6 6 5 4 5 5 5 5 5 4 3 3 3 4 3 3 3 3 3 3
1 1 1 0 0 0 1 1 4 4 4 4 4 5 5 5 5 5 5 5 6 6 6 6 5 6 6 6 6 6 5 5 5 4 5 5 6 6 4 4 3 3 3 3 3 2 3 3 2
-1 -0 -0 -1 -0 -1 2 2 3 4 5 4 4 4 4 4 4 4 5 4 5 4 4 5 5 5 5 5 5 5 5 5 5 4 4 4 5 5 4 4 3 3 3 2 2 2 2 2 2
-2 -1 -1 -2 -2 -2 2 2 4 3 3 3 3 3 3 3 3 4 3 3 3 4 4 4 4 4 4 4 4 5 5 5 4 4 4 4 3 3 3 3 2 2 2 2 2 2 2 1 2
-1 -0 1 -0 -2 -2 1 1 2 3 2 2 2 2 2 2 3 2 2 3 3 3 4 4 4 4 4 5 5 4 4 4 4 4 3 3 2 2 2 2 2 2 2 1 1 1 1 1 1
-2 -1 -1 -0 1 0 1 1 1 2 2 2 2 1 2 2 2 2 2 3 3 3 4 4 4 4 5 5 5 5 4 4 4 3 2 2 2 2 1 1 1 1 1 1 1 1 0 0 0
-2 -1 -1 -0 -2 -0 1 2 3 2 2 1 1 1 1 1 2 2 2 3 3 4 4 4 4 5 5 5 5 5 4 4 4 3 2 2 1 2 1 1 0 0 -0 -0 -0 -0 -0 -1 -1
-2 -2 -1 -1 0 -2 -0 2 2 3 2 1 1 1 1 1 2 2 2 3 3 3 4 4 4 4 4 4 4 4 4 4 4 3 3 3 2 2 0 -1 -1 -1 -1 -1 -1 -1 -1 -2 -1
-2 -2 -1 -1 -0 -0 0 0 1 1 0 -0 0 1 1 2 1 1 1 2 3 3 4 4 4 4 4 4 4 4 4 3 3 3 3 2 1 1 -0 -1 -2 -2 -2 -2 -2 -2 -3 -3 -3

GFSSGP_700_temp_039.txt.gz
Temp
5 5 5 6 7 7 8 10 10 11 10 11 11 11 12 12 12 12 11 12 11 11 11 11 10 10 10 10 10 10 9 9 9 9 10 10 10 9 9 10 10 10 10 10 9 9 9 9 9
5 5 5 5 6 6 8 10 9 10 10 11 11 11 11 11 11 11 11 11 11 11 11 11 10 10 10 10 10 10 10 9 9 9 9 9 10 9 9 9 9 9 9 9 9 9 9 9 9
4 5 4 5 6 7 9 10 10 10 10 10 10 10 10 11 11 10 11 11 11 11 11 10 10 10 10 10 10 10 10 9 9 9 9 9 9 9 9 9 9 9 9 9 9 9 9 9 8
4 4 4 4 5 8 9 8 9 10 9 9 9 10 9 9 10 10 11 11 11 11 11 10 10 10 10 10 10 10 9 9 9 9 9 9 9 9 9 9 9 9 9 9 8 8 8 8 8
3 2 3 4 6 9 8 8 9 9 9 9 9 9 9 9 9 10 11 11 11 11 11 11 10 10 10 10 10 9 9 9 9 9 9 8 8 8 8 8 8 8 8 8 8 8 8 8 8
1 2 2 4 5 8 7 8 8 9 8 9 9 9 9 9 9 9 10 11 11 11 11 11 10 10 10 10 10 9 9 9 9 9 9 9 8 8 8 8 8 8 8 8 8 8 8 8 8
2 1 2 3 5 6 7 7 8 8 8 8 8 8 8 8 9 9 10 10 10 10 10 10 10 10 10 10 10 9 9 9 9 9 9 8 8 8 8 8 8 8 8 8 7 7 7 7 7
1 1 1 3 5 7 7 7 8 8 8 8 8 8 8 8 9 9 9 10 10 10 10 10 10 10 10 10 10 9 9 9 9 9 9 9 8 8 8 8 8 8 7 7 7 7 7 7 7
1 1 1 3 4 7 6 6 7 8 8 8 8 8 8 8 9 8 9 10 10 10 10 10 10 10 10 10 9 9 9 9 9 9 9 9 9 8 8 8 8 8 8 8 7 7 7 7 7
1 0 3 4 5 6 6 4 6 7 8 7 7 8 7 7 8 9 9 9 9 10 10 10 9 9 9 9 9 9 9 9 9 9 8 8 8 8 8 8 8 8 8 8 7 7 7 7 7
1 3 3 4 3 1 3 4 5 6 7 7 7 7 7 7 8 8 8 9 9 9 9 9 9 9 9 9 9 9 9 9 8 8 8 8 8 8 8 8 8 8 8 8 7 7 7 7 7
1 2 2 3 1 1 3 3 4 6 6 7 6 7 7 7 7 8 8 8 8 8 8 8 9 9 8 8 8 8 8 8 8 8 8 8 8 8 8 8 8 8 7 7 7 7 7 7 7
1 1 2 2 2 2 2 2 4 5 6 6 6 7 7 7 7 7 7 7 8 8 8 8 8 8 8 8 8 8 8 8 8 8 8 7 7 7 7 7 7 7 7 7 7 7 7 7 7
1 1 1 1 0 2 1 1 3 5 5 6 5 6 6 7 7 7 7 7 7 7 7 7 7 7 7 8 8 7 7 7 7 7 7 7 7 7 7 7 7 7 7 7 6 6 6 6 6
0 1 1 0 2 2 2 3 4 5 5 6 5 6 6 6 7 7 7 7 7 7 7 7 7 7 7 7 7 7 7 7 7 7 7 7 7 7 7 7 6 6 6 6 6 6 6 6 6
0 1 1 1 1 2 3 4 5 5 5 5 6 6 6 6 6 7 7 7 7 7 7 7 7 7 7 7 6 6 6 6 6 6 6 6 6 6 6 6 6 6 6 6 5 5 5 6 5
-1 1 1 1 1 2 4 4 5 5 5 5 5 6 6 6 6 6 6 6 6 6 7 7 8 7 7 6 6 6 6 6 6 6 6 6 6 5 5 5 5 5 5 5 5 5 5 5 5
1 1 1 1 1 2 3 4 4 4 4 5 5 5 5 6 6 6 6 6 6 6 7 6 7 8 8 7 6 6 6 6 6 5 5 5 5 5 5 5 4 4 4 4 4 4 4 4 4
1 1 1 1 1 2 3 4 4 4 4 4 5 5 5 5 5 6 6 6 6 6 6 7 7 7 7 7 7 7 6 5 5 5 5 5 5 5 5 5 4 4 4 4 4 4 4 4 3
1 1 2 2 2 2 2 2 3 3 3 4 5 5 5 5 5 5 5 6 7 7 6 6 6 6 6 6 6 7 7 7 6 6 5 5 4 4 4 4 5 4 4 4 4 3 3 4 3
0 1 1 1 1 1 1 2 3 4 3 4 4 5 5 5 5 5 6 6 7 7 6 6 6 6 6 6 6 6 6 6 6 6 6 5 4 4 3 4 4 4 4 4 3 3 3 3 3
0 1 2 1 1 1 1 1 4 5 4 4 5 6 5 5 5 5 5 6 6 5 6 6 6 6 6 6 6 6 6 6 5 6 6 6 5 5 4 3 3 3 3 4 4 3 3 3 3
0 1 1 1 1 1 1 1 3 5 4 4 5 6 5 5 4 5 5 6 6 5 5 6 6 6 5 5 5 6 6 5 5 5 5 5 5 5 5 5 4 3 3 3 3 3 3 2 2
0 1 1 0 0 -1 1 1 3 5 6 6 4 4 4 5 5 5 5 5 5 5 5 5 5 5 5 5 5 5 5 5 5 5 5 5 5 5 5 5 5 4 3 3 2 2 2 2 2
-1 0 -2 -2 -3 -3 1 1 2 3 4 4 4 4 4 4 4 4 4 4 4 4 4 4 4 5 5 5 5 5 5 5 5 5 5 4 4 4 3 3 4 4 3 2 2 2 2 1 1
-1 0 -1 -2 -4 -3 0 0 2 3 3 3 3 3 3 3 4 3 3 3 3 3 3 4 4 4 4 4 5 5 5 5 5 5 4 4 3 3 3 3 2 2 2 2 2 2 1 1 1
-1 -2 -1 -0 -0 -2 1 1 1 2 2 3 3 3 3 2 2 2 2 2 3 3 3 4 4 4 5 5 5 5 5 5 5 5 4 4 4 3 3 2 2 1 1 0 0 0 0 0 0
-1 -1 -2 -1 -4 -2 -1 1 3 2 2 2 2 2 2 2 2 2 2 2 3 3 3 4 4 4 4 5 5 5 5 5 5 5 4 4 4 4 4 2 1 1 0 0 -0 -1 -1 -1 -1
-2 -2 -2 -1 -1 -4 -3 1 2 3 3 3 2 1 1 1 2 1 2 2 3 3 3 4 4 4 4 5 4 4 5 5 5 5 5 4 3 3 3 2 1 1 -0 -1 -1 -2 -2 -2 -2
-2 -2 -1 -1 -1 -1 -1 0 2 3 2 1 0 0 0 1 1 1 1 2 3 3 3 3 4 4 4 4 4 4 4 4 4 4 4 3 3 3 2 1 1 -0 -1 -0 -2 -3 -3 -2 -2

GFSSGP_700_temp_042.txt.gz
Temp
5 5 6 6 6 7 8 9 9 10 11 11 11 11 12 11 11 12 12 12 11 11 11 10 10 10 10 10 10 10 9 9 9 9 9 10 10 10 9 10 10 9 9 9 9 9 9 9 9
5 5 5 5 6 6 8 9 9 10 11 11 11 11 12 11 11 12 11 12 11 11 11 10 10 10 10 10 10 10 10 9 9 9 9 9 9 9 9 9 9 9 9 9 9 9 9 9 9
4 5 5 5 5 7 8 8 9 10 10 11 11 10 11 11 11 11 11 11 11 11 11 10 10 10 10 10 9 9 10 9 9 9 9 9 9 9 9 9 9 9 9 9 9 9 9 9 9
3 4 5 5 5 8 8 8 9 9 10 10 11 10 11 11 11 11 11 11 11 11 11 10 10 10 10 10 9 9 9 9 9 9 9 9 9 9 9 9 8 8 8 8 8 8 8 8 8
3 3 4 4 6 8 7 7 8 9 9 10 10 10 10 10 11 11 11 11 11 11 11 10 10 10 10 10 9 9 9 9 9 9 9 8 9 8 8 8 8 8 8 8 8 8 8 8 8
2 2 3 4 6 7 7 7 8 8 9 9 9 9 9 9 10 11 11 11 11 11 11 10 10 10 10 10 10 9 9 9 9 9 9 9 8 8 8 8 8 8 8 8 8 8 8 8 7
2 2 2 3 5 6 7 7 7 8 9 8 8 9 9 9 10 9 10 10 10 11 10 10 10 10 10 10 10 9 9 9 9 9 9 9 8 8 8 8 8 8 7 7 7 7 7 7 7
2 2 3 2 4 5 6 7 7 8 8 8 8 8 8 9 9 9 9 10 10 10 10 10 10 10 10 10 10 9 9 9 9 8 8 9 9 8 8 8 8 8 7 7 7 7 7 7 7
1 1 0 2 3 5 5 5 7 7 8 8 8 8 8 8 8 8 9 9 10 10 10 10 10 10 10 9 9 9 9 9 9 8 8 8 8 8 8 8 8 7 7 7 7 7 7 7 7
0 1 2 5 4 3 4 4 6 6 7 8 7 8 8 8 8 8 9 9 9 9 9 9 9 9 9 9 9 9 9 9 9 9 8 8 8 8 8 8 8 7 7 7 7 7 7 7 7
2 3 2 3 2 2 2 4 4 5 6 7 8 7 7 7 7 8 8 8 8 9 9 9 9 9 9 9 9 9 9 9 8 8 8 8 8 8 8 8 8 7 7 7 7 7 7 7 7
1 1 2 2 1 1 1 2 4 5 5 6 7 7 7 7 7 7 7 8 8 9 9 9 9 9 9 8 8 8 8 8 8 8 8 8 8 8 7 7 7 7 7 7 7 7 7 7 7
1 2 0 0 0 0 1 3 3 4 5 6 6 7 7 7 7 7 7 7 8 8 8 8 8 8 8 8 8 8 8 8 8 8 7 7 7 7 7 7 7 7 7 7 7 6 6 6 6
1 0 1 0 0 -0 0 3 2 4 4 5 6 7 7 7 7 7 7 7 7 7 7 8 8 8 8 8 8 8 8 7 7 7 7 7 7 7 7 7 7 6 6 6 6 6 6 6 6
-0 0 -0 0 1 0 -0 0 1 3 4 4 6 6 6 6 7 7 7 7 7 7 7 7 7 7 7 7 7 7 7 7 7 6 6 6 6 6 6 6 6 6 6 6 6 6 6 5 5
0 0 0 1 1 1 1 2 2 3 3 4 5 5 6 6 6 6 7 7 7 7 7 7 7 7 7 7 7 7 7 7 6 6 6 6 6 6 6 6 6 6 6 5 6 5 5 5 5
-0 1 1 1 1 1 1 3 1 2 3 4 5 5 6 5 6 6 6 7 7 7 7 7 7 7 7 7 7 7 6 6 6 6 6 6 6 5 5 5 5 5 5 5 5 5 5 4 5
1 1 2 1 1 1 2 3 3 3 4 4 5 5 5 5 6 6 6 6 6 7 7 7 7 7 7 7 7 7 7 6 6 6 5 5 5 5 5 5 5 5 4 4 4 4 4 4 4
0 0 0 0 1 1 2 2 3 3 4 5 5 5 5 5 5 6 6 5 5 6 6 6 6 6 7 7 7 7 6 6 5 5 5 5 5 5 5 5 4 4 4 4 4 4 4 3 3
0 0 1 1 1 1 2 2 3 3 3 4 5 5 5 5 5 5 5 5 5 6 5 5 6 6 6 6 6 7 7 6 6 5 5 5 5 5 4 4 4 5 4 4 4 4 4 3 3
-0 1 1 1 1 1 1 2 2 4 3 4 4 5 5 5 5 5 5 5 5 5 6 6 5 5 6 6 6 6 7 7 7 6 6 6 5 5 4 3 4 4 5 4 4 4 3 3 3
-0 0 0 1 1 0 0 0 3 3 4 4 4 5 5 5 5 5 5 5 5 5 5 5 5 5 5 6 6 6 6 6 6 6 6 6 5 5 4 4 4 3 4 4 4 4 3 3 3
-0 0 1 1 1 1 1 0 2 3 4 5 5 5 5 5 5 5 5 5 5 5 5 5 5 5 5 5 5 6 6 6 6 5 6 6 6 6 5 5 4 4 3 3 3 3 3 3 3
-0 0 0 -0 0 -1 1 1 2 4 5 5 5 5 5 5 4 4 5 5 5 5 5 5 5 5 5 5 5 5 5 5 5 5 5 5 5 5 5 5 4 4 4 3 3 3 2 2 2
-0 0 -2 -2 -3 -3 1 0 2 4 4 5 5 5 4 4 4 4 4 4 5 5 5 4 4 5 5 5 5 5 5 5 5 5 5 5 5 5 4 4 4 4 4 3 3 3 2 2 2
-0 0 -1 -3 -5 -3 -0 0 2 4 4 3 3 3 3 4 4 4 3 4 4 4 4 4 4 4 4 4 5 5 5 5 6 5 5 5 5 4 4 4 3 3 3 2 2 2 2 2 1
-1 -0 -0 -1 -2 -3 0 2 2 3 4 4 3 3 4 4 3 3 3 3 3 3 3 4 4 4 4 4 4 5 5 5 5 5 5 5 5 4 4 4 3 2 1 1 1 1 1 1 0
-1 -1 -2 -1 -5 -3 -1 -0 2 3 4 4 3 3 3 3 3 3 2 2 2 3 3 3 4 4 4 4 4 4 5 5 5 5 5 5 5 5 4 4 3 2 2 1 0 0 0 -0 -1
-2 -2 -1 -1 -2 -4 -4 0 2 3 3 4 3 2 2 2 2 2 1 2 2 3 3 3 4 4 4 4 4 4 4 5 4 5 5 5 5 4 4 4 3 2 2 1 1 1 -0 -1 -1
-2 -2 -1 -1 -3 -1 -2 0 2 2 2 2 2 1 -0 0 1 1 1 1 2 2 2 3 3 4 4 4 4 4 4 4 4 4 4 4 4 3 3 3 2 2 2 1 1 0 -0 -1 -1

GFSSGP_700_temp_045.txt.gz
Temp
5 5 6 6 6 6 8 9 10 10 11 11 11 11 11 11 12 12 12 11 11 11 11 10 10 10 10 10 10 10 10 9 9 9 9 9 9 9 9 9 9 9 9 9 9 9 9 9 9
5 5 5 5 5 6 8 9 9 10 10 10 11 11 11 11 11 12 12 11 11 11 10 10 10 10 10 10 10 10 9 9 9 9 9 9 9 9 9 9 9 9 9 9 9 9 9 9 9
4 5 5 5 5 6 8 8 9 9 9 10 10 11 11 11 11 12 12 11 11 11 11 10 10 10 10 9 9 9 9 9 9 9 9 9 9 9 9 9 9 9 9 9 9 9 9 9 8
3 4 4 5 5 7 7 8 9 9 9 10 10 11 11 11 11 11 11 11 11 11 11 10 10 10 10 9 9 9 9 9 9 9 9 8 8 8 8 8 8 8 8 8 8 8 8 8 8
3 3 4 4 5 7 7 7 8 9 8 9 10 10 11 11 11 11 11 11 11 11 11 10 10 10 10 9 9 9 9 9 9 9 9 8 8 8 8 8 8 8 8 8 8 8 8 7 7
2 3 3 4 5 6 7 6 7 8 8 9 9 10 10 10 11 11 10 10 11 11 11 10 10 10 10 9 9 9 9 9 9 9 9 9 8 8 8 8 8 8 8 8 8 7 7 7 7
1 2 3 3 5 6 6 6 7 8 8 9 9 9 10 10 10 10 10 10 10 10 10 10 10 10 9 9 9 9 9 9 8 8 8 9 8 8 8 8 8 8 8 8 7 7 7 7 7
1 1 2 3 4 6 6 6 6 7 7 8 9 8 9 9 9 10 10 10 10 10 10 10 10 10 9 9 9 9 9 9 8 8 8 8 8 8 8 8 8 7 7 7 7 7 7 7 7
1 1 1 3 4 5 6 6 6 7 7 7 8 8 8 9 9 9 10 10 10 10 10 10 10 9 9 9 9 9 9 9 8 8 8 8 8 8 8 8 8 7 7 7 7 7 7 7 7
0 1 2 4 4 5 5 5 5 6 7 7 7 8 8 8 8 8 9 9 9 9 9 9 9 9 9 9 9 9 9 9 8 8 8 8 8 8 8 8 8 7 7 7 7 7 7 7 7
0 1 2 2 3 4 5 4 4 5 6 6 6 8 8 8 8 8 8 8 9 9 9 9 9 9 9 9 9 9 9 8 8 8 8 8 8 8 8 7 7 7 7 7 7 7 7 6 6
1 1 1 1 2 3 4 3 3 4 5 6 6 5 7 8 8 8 8 8 8 8 8 9 9 9 8 8 8 8 8 8 8 8 8 8 8 7 7 7 7 7 7 7 7 7 6 6 6
1 2 1 1 2 1 2 2 3 4 5 5 6 5 6 7 7 7 7 7 8 8 8 8 8 8 8 8 8 8 7 7 7 7 7 7 7 7 7 7 7 6 6 6 6 6 6 6 6
1 1 1 1 1 0 1 1 2 4 4 5 5 6 6 6 7 7 7 7 8 8 8 8 8 8 8 8 8 7 7 7 7 7 7 7 7 6 6 6 6 6 6 6 6 6 6 5 5
0 0 0 0 -0 0 0 0 1 3 3 4 5 4 6 6 6 7 7 7 7 7 7 8 7 7 7 7 7 7 7 7 7 6 6 6 6 6 6 6 6 6 6 6 6 6 5 5 5
-0 -0 0 -0 0 -1 -0 1 1 1 2 3 4 4 5 6 6 6 6 7 7 7 7 7 7 7 7 7 7 7 7 7 7 6 6 6 6 6 6 6 6 5 5 5 6 5 5 5 5
-1 -0 -1 0 0 1 0 2 2 0 2 3 3 3 4 5 6 6 6 6 6 6 6 7 7 7 7 7 7 7 7 7 7 6 6 6 6 5 5 5 5 5 5 5 5 5 5 4 4
-0 1 0 0 1 0 1 1 2 1 2 3 3 4 4 5 5 5 6 6 6 7 6 6 6 6 7 7 7 7 7 7 7 6 6 5 5 5 5 5 5 5 5 5 5 4 4 4 4
0 -0 -0 0 0 1 1 1 2 1 1 2 4 4 4 4 5 5 5 5 6 6 6 7 7 6 6 6 7 7 7 6 6 6 6 6 6 5 5 5 5 5 5 4 4 4 4 4 3
-0 -0 0 0 1 0 1 1 2 1 1 2 3 4 4 4 5 5 5 5 5 5 6 6 6 6 6 6 6 6 6 6 6 6 6 6 5 5 5 5 5 4 5 4 4 4 4 4 4
-1 0 1 1 1 0 1 1 1 3 2 3 3 4 4 4 4 5 5 5 5 5 5 5 6 5 5 5 6 6 6 6 6 6 6 6 6 5 5 5 5 5 5 4 4 4 4 3 4
-1 -0 0 1 1 0 0 -0 2 3 3 4 4 4 4 5 5 5 5 5 4 4 5 5 5 5 5 5 5 5 6 6 6 6 6 6 6 5 5 5 4 4 4 4 3 3 3 3 3
-1 -0 -0 0 0 1 0 0 2 3 4 5 5 5 4 4 5 5 5 4 4 4 5 5 5 5 5 5 5 5 5 5 6 6 6 6 5 5 5 5 4 4 3 3 3 3 3 3 3
-0 -0 -0 -0 -0 -1 1 1 2 3 5 5 5 5 5 4 4 4 4 5 5 5 5 5 5 5 5 5 5 5 5 5 5 5 5 5 5 5 4 4 4 4 4 3 3 3 3 3 2
-2 -1 -2 -2 -4 -4 0 1 2 4 4 5 5 5 5 5 4 4 4 4 4 4 4 5 5 5 5 5 5 5 5 5 5 5 5 5 5 4 4 4 4 4 4 3 3 3 2 2 2
-2 -1 -1 -3 -4 -3 -0 0 2 4 4 4 4 5 5 5 4 4 4 4 4 4 4 4 4 4 4 4 4 4 4 4 5 4 5 5 5 4 4 4 4 4 3 3 3 2 2 2 1
-2 -1 -1 -1 -2 -3 -0 1 2 3 4 4 5 4 5 5 4 3 3 3 3 3 3 4 4 4 3 4 4 4 4 4 5 5 5 5 5 5 5 4 4 3 3 3 2 2 2 1 1
-1 -1 -1 -1 -6 -4 -2 -0 2 3 4 3 4 5 4 4 3 3 3 2 2 2 3 3 3 3 3 3 4 4 4 5 5 5 5 5 5 5 5 4 4 4 3 3 2 2 2 1 1
-2 -1 -1 -1 -1 -5 -4 0 2 3 3 3 3 3 3 3 3 3 2 2 1 2 2 2 3 3 3 4 4 4 4 4 4 4 4 4 4 4 4 4 4 3 3 2 2 2 1 1 0
-2 -1 -1 -1 -3 -2 -3 -1 2 2 3 3 2 2 2 1 1 1 1 1 1 1 2 2 2 3 3 4 4 4 4 4 4 4 4 4 4 4 3 3 3 3 3 3 2 2 1 1 1

GFSSGP_700_temp_051.txt.gz
Temp
5 6 6 6 6 6 7 8 9 9 10 10 10 11 10 11 11 12 11 11 11 11 11 10 10 9 9 9 9 9 9 9 9 9 9 9 9 9 9 9 9 9 9 9 9 9 9 9 8
5 5 6 5 6 6 7 8 9 9 10 10 10 10 11 11 11 11 12 11 11 10 10 10 10 9 9 9 9 9 9 9 9 9 8 8 8 8 8 8 8 8 8 8 8 8 8 8 8
5 5 5 5 5 6 7 8 9 9 10 11 10 10 11 11 11 11 11 11 11 10 10 10 10 9 9 9 9 9 9 9 8 8 8 8 8 8 8 8 8 8 8 8 8 8 8 8 7
4 4 5 5 5 6 7 8 8 9 9 10 10 10 10 11 11 11 11 11 11 10 10 10 10 9 9 9 9 9 9 9 8 8 8 7 7 8 8 8 8 8 8 8 8 7 7 7 7
3 4 4 5 5 6 7 7 8 8 8 9 9 10 10 11 11 11 11 11 11 10 10 10 10 9 9 9 9 9 9 8 8 8 8 8 7 7 7 7 7 7 7 7 7 7 7 7 7
1 3 3 5 5 6 6 7 7 7 8 8 9 9 10 10 11 11 11 11 11 10 10 10 10 10 9 9 9 9 8 8 8 8 8 8 7 7 7 7 7 7 7 7 7 7 7 7 7
1 2 3 4 5 6 6 6 6 7 7 8 9 9 9 10 10 11 11 11 10 10 10 10 9 10 9 9 9 9 8 8 8 8 8 8 8 8 7 7 7 7 7 7 7 7 7 7 7
1 1 2 4 5 5 6 7 6 6 7 8 8 8 9 9 10 10 10 10 10 10 10 10 9 9 9 9 9 9 8 8 8 8 8 8 7 7 7 7 7 7 7 7 7 7 7 7 7
0 1 2 3 4 5 5 6 6 6 6 7 7 8 8 9 9 9 10 10 10 10 10 10 9 9 9 9 9 9 8 8 8 8 8 8 8 7 7 7 7 7 7 7 7 7 7 7 6
1 0 0 1 3 4 5 5 5 5 6 6 7 7 8 8 7 7 9 10 10 10 10 10 10 9 9 9 9 9 8 8 8 8 8 8 8 7 7 7 7 7 7 7 7 7 7 7 6
0 0 -0 0 2 2 4 4 5 5 6 6 6 7 7 7 7 7 7 8 9 9 9 9 10 10 9 9 9 9 8 8 8 8 8 8 8 7 7 7 7 7 7 7 7 6 6 6 6
-0 1 0 0 1 2 3 4 4 5 5 6 6 7 7 7 7 7 7 7 8 8 9 9 9 9 9 9 9 8 8 8 8 8 8 8 7 7 7 7 7 7 6 6 6 6 6 6 6
0 0 0 -0 0 1 2 3 3 4 4 5 6 6 6 7 6 6 6 6 7 8 8 8 8 8 8 8 8 8 8 8 8 7 7 7 7 7 7 7 6 6 6 6 6 6 6 6 6
0 0 0 -0 0 1 1 2 2 4 4 4 5 5 6 6 6 6 6 6 6 7 7 8 8 8 8 8 8 8 8 8 7 7 7 7 7 6 6 6 6 6 6 6 6 6 6 5 5
-0 -0 0 -0 0 1 0 1 4 4 4 4 4 5 5 5 6 6 6 6 6 6 7 7 7 8 8 8 8 7 7 7 7 7 7 7 7 6 6 6 6 5 5 5 5 5 5 5 5
-1 -0 -0 -0 -0 0 0 2 3 4 4 4 3 4 5 5 5 6 5 6 6 6 7 7 7 7 7 7 7 7 7 7 7 7 7 6 6 6 6 6 5 5 5 5 5 5 5 5 5
-1 -0 -1 0 -0 0 1 3 2 2 2 4 3 3 4 5 5 5 5 5 5 5 6 7 7 7 7 7 7 7 7 7 6 6 6 6 6 6 6 5 5 5 5 5 5 5 5 5 4
-1 -1 -0 -0 -0 -0 1 1 1 2 2 4 3 3 4 5 5 5 5 5 6 6 6 6 7 7 7 7 6 6 6 6 6 6 6 6 6 6 6 5 5 5 5 5 5 5 5 4 4
-1 -1 -0 -1 -0 0 0 1 1 1 1 2 2 3 4 4 5 5 5 5 5 6 6 6 6 6 6 6 6 6 6 6 6 6 6 6 6 5 5 6 6 5 5 5 5 5 4 4 4
-1 -1 -1 -1 -0 0 0 1 1 1 2 3 3 3 4 4 4 4 4 5 5 5 5 5 6 6 6 6 6 6 6 6 6 6 6 6 6 6 6 6 6 5 5 5 5 4 4 4 4
-1 -1 -1 -0 -0 -0 -0 0 1 1 3 3 2 2 4 4 4 4 4 4 4 4 4 5 5 6 6 6 6 6 6 6 6 6 6 6 6 6 6 5 5 5 5 5 5 5 4 4 4
-2 -1 -0 -0 0 -1 -0 -0 2 2 2 3 3 3 3 4 4 3 4 4 4 4 4 4 5 5 5 5 5 5 5 5 5 5 6 6 5 6 6 5 5 5 5 5 5 4 4 4 4
-1 -1 -1 -0 -1 -0 -1 -1 1 2 3 4 4 3 3 3 3 4 4 4 4 4 4 5 5 5 5 5 4 4 5 5 5 5 5 5 5 5 6 6 5 5 5 5 5 4 4 4 4
-1 -1 -1 -0 -0 -2 -1 -0 1 2 3 3 4 4 3 2 1 2 4 4 4 4 4 4 4 4 4 4 4 4 5 5 5 5 5 5 5 5 5 5 5 5 5 4 4 4 4 3 3
-1 -1 -3 -2 -3 -2 -1 -1 0 1 2 2 3 3 4 3 3 3 4 4 4 4 4 4 4 4 4 4 4 5 5 5 5 5 5 5 5 5 5 5 5 4 4 4 4 4 3 3 3
-2 -1 -1 -3 -3 -2 -1 -1 2 3 3 3 3 3 4 4 4 4 4 4 4 3 3 3 3 3 4 4 4 5 5 5 5 5 5 5 5 5 4 4 4 4 4 4 4 3 3 3 3
-2 -1 -1 -2 -4 -3 -1 -0 2 3 3 2 3 4 4 4 4 4 4 4 4 3 3 3 3 3 3 4 4 5 5 5 5 4 4 4 4 4 4 4 4 4 4 4 4 4 3 3 3
-2 -1 -2 -1 -5 -3 -2 -1 2 2 2 2 3 3 4 4 4 4 4 4 4 3 2 2 2 3 3 3 3 4 4 4 4 4 4 4 4 4 4 4 4 4 4 4 4 3 3 3 2
-2 -2 -2 -1 -1 -3 -3 1 2 2 2 2 3 3 3 3 3 4 4 3 2 2 2 2 2 2 2 2 2 3 3 3 3 4 4 4 4 4 4 4 3 3 3 3 3 3 3 2 2
-2 -2 -2 -1 -3 -2 -3 -0 2 2 2 2 2 2 3 3 3 2 2 1 1 1 2 1 2 1 1 2 2 2 3 3 3 3 4 4 4 3 3 3 3 3 3 3 2 2 2 2 2

GFSSGP_700_temp_054.txt.gz
Temp
5 5 6 6 6 6 9 8 9 10 9 10 10 11 10 11 11 12 11 11 11 11 10 10 9 9 9 9 9 9 9 9 9 9 9 9 9 9 9 9 9 9 9 9 9 9 8 8 8
5 5 5 6 6 7 9 7 9 9 10 10 10 10 10 10 11 11 11 11 11 11 10 10 9 9 9 9 9 9 9 8 8 8 8 8 8 8 8 8 8 8 8 8 8 8 8 8 8
5 5 5 5 6 8 9 8 9 9 10 10 10 10 10 11 11 11 11 11 11 10 10 10 10 9 9 9 9 9 9 8 8 8 8 8 8 8 8 8 8 8 8 8 8 8 8 8 7
4 4 5 5 6 7 7 7 8 9 9 10 10 10 10 11 11 11 11 11 10 10 10 10 10 9 9 9 9 9 9 8 8 8 8 8 8 8 8 7 7 7 7 7 7 7 7 7 7
3 3 4 5 6 5 6 7 8 8 9 10 9 10 11 11 11 11 11 11 10 10 10 10 10 9 9 9 9 9 8 8 8 8 8 8 7 7 7 7 7 7 7 7 7 7 7 7 7
1 3 4 5 5 5 6 7 7 8 8 9 9 10 10 11 11 11 11 11 10 10 10 10 10 10 9 9 9 9 8 8 8 8 8 8 7 7 7 7 7 7 7 7 7 7 7 7 7
1 2 4 5 5 5 6 7 7 7 8 8 9 9 10 10 11 10 10 10 10 10 10 9 9 9 9 9 9 8 8 8 8 8 8 8 8 8 7 7 7 7 7 7 7 7 7 7 6
1 2 2 3 3 4 5 6 6 6 7 8 9 9 9 10 10 10 10 10 10 10 10 9 9 9 9 9 9 8 8 8 8 8 8 8 7 7 7 7 7 7 7 7 7 7 7 7 6
0 1 2 3 3 4 5 5 6 6 7 8 8 9 9 9 10 10 10 10 10 10 10 10 9 9 9 9 9 8 8 8 8 8 8 8 8 7 7 7 7 7 7 7 7 7 7 7 7
0 1 2 2 3 4 4 5 5 5 6 7 8 8 9 9 9 9 9 9 10 10 10 10 9 9 9 9 9 9 8 8 8 8 8 8 8 7 7 7 7 7 7 7 7 7 7 7 6
1 1 1 1 2 3 3 3 4 5 6 6 7 8 8 8 8 8 8 8 8 9 9 10 9 9 9 9 9 9 8 8 8 8 8 8 8 7 7 7 7 7 7 7 7 7 6 6 6
1 1 0 1 2 1 2 3 3 4 5 5 6 7 7 7 8 8 8 7 8 8 9 9 9 9 9 9 9 9 8 8 8 8 8 8 7 7 7 7 7 7 7 7 6 6 6 6 6
0 0 0 1 1 1 2 3 3 4 4 5 5 6 7 7 7 7 7 8 8 8 8 8 9 9 9 9 8 8 8 8 8 8 8 7 7 7 7 7 7 6 6 6 6 6 6 6 6
-1 -0 -0 -0 0 0 1 1 2 4 4 4 4 5 6 6 7 7 7 7 7 7 7 8 8 8 8 8 8 8 8 8 8 7 7 7 7 7 7 6 6 6 6 6 6 6 6 5 5
0 0 0 0 0 0 -0 1 1 3 4 3 4 4 5 6 6 6 7 6 6 6 6 6 7 8 8 8 8 8 8 8 8 7 7 7 7 7 6 6 6 6 6 6 5 5 5 5 5
-0 -0 -0 1 1 0 -1 2 3 2 3 4 4 4 4 5 6 6 6 6 6 6 6 6 7 7 7 7 7 8 8 7 7 7 7 7 6 6 6 6 6 5 6 6 5 5 5 5 5
-1 0 -0 0 0 0 0 1 1 2 3 4 4 3 3 4 5 6 6 6 6 6 6 6 6 7 7 7 7 7 7 7 7 7 6 6 6 6 6 6 5 5 5 5 5 5 5 5 5
0 1 0 0 0 0 1 0 2 1 2 3 4 4 3 3 4 5 6 6 6 5 5 6 6 6 7 7 7 7 7 6 6 6 6 6 6 6 6 6 6 5 5 5 5 5 5 4 4
1 0 0 -1 0 -0 0 -0 2 1 2 3 4 4 4 3 3 5 5 6 5 5 5 6 6 5 6 6 6 6 6 6 6 6 6 6 6 6 6 6 6 5 5 5 5 5 5 4 4
-1 0 1 -0 -0 -0 -0 1 2 2 2 3 3 4 3 4 4 4 5 5 5 5 5 5 5 6 6 6 6 6 6 6 6 6 6 6 6 6 6 6 6 5 5 5 5 4 4 4 4
-1 -0 0 1 -1 -0 -0 0 2 2 2 3 4 4 4 4 4 4 5 5 5 5 5 5 5 5 5 5 5 5 5 5 6 6 5 6 6 6 6 6 6 5 5 5 5 4 4 4 4
-1 -1 -1 -1 0 1 0 4 2 2 4 4 4 4 4 4 4 4 4 4 4 5 4 5 5 5 5 5 5 5 5 5 5 6 6 6 6 6 6 6 6 6 5 5 5 5 5 4 4
-1 -0 -1 -1 0 0 -0 1 3 2 4 3 4 3 4 4 3 3 4 4 4 4 4 5 5 5 5 5 5 5 5 5 5 5 5 5 6 6 6 6 6 5 5 5 5 5 4 4 4
-1 -1 -1 -1 0 0 1 1 3 2 2 3 3 4 3 2 3 3 3 3 4 4 4 4 4 5 5 5 5 4 4 5 5 5 5 5 5 5 5 5 5 5 5 5 4 4 4 4 4
-1 -1 -1 -0 -1 2 -0 -0 2 2 2 2 2 3 3 3 2 2 2 3 4 4 4 4 4 4 4 4 4 4 4 4 5 5 5 5 5 5 6 5 5 5 5 5 5 4 4 4 4
-1 0 1 1 1 2 -1 0 2 3 3 3 3 2 3 4 3 3 2 2 3 3 3 4 4 3 3 3 4 4 4 4 5 5 5 5 5 5 5 5 5 5 5 5 5 4 4 4 4
-3 -2 -1 -1 -2 0 1 0 2 3 2 3 2 3 3 3 3 3 3 2 3 2 3 4 3 3 3 3 3 3 4 4 5 5 5 5 4 4 4 4 5 5 5 4 4 4 4 4 4
-1 -2 -1 -1 -0 1 1 1 3 1 2 2 3 3 3 4 4 4 3 3 3 3 3 3 3 2 2 2 3 3 3 4 4 4 4 4 4 4 4 4 4 4 4 4 4 4 4 3 3
-2 -2 -2 -1 -1 2 2 3 2 1 2 2 2 2 3 3 3 3 4 3 4 4 3 2 2 2 2 2 2 3 3 3 3 4 4 4 4 4 4 4 4 4 4 4 3 3 3 3 3
-2 -2 -1 -0 -1 -2 -1 2 2 2 2 2 2 2 2 2 2 3 3 3 3 3 2 1 1 1 1 2 2 2 2 2 3 3 4 4 4 4 4 4 4 4 3 3 3 3 3 2 2

GFSSGP_700_temp_057.txt.gz
Temp
5 5 5 6 6 7 9 10 10 9 9 9 10 11 12 12 12 12 12 11 11 11 10 10 10 10 9 9 9 9 9 9 9 9 9 9 9 9 9 9 9 9 9 9 9 9 8 8 8
5 5 5 5 6 9 10 10 9 9 9 10 10 11 11 10 11 12 12 11 10 10 10 10 10 9 9 9 9 9 8 8 8 8 8 8 8 8 8 8 8 9 9 8 8 8 8 8 8
4 5 4 5 7 9 10 10 9 8 9 10 10 10 9 10 11 11 11 11 10 10 10 10 9 9 9 9 9 9 8 8 8 8 8 8 8 8 8 8 8 8 8 8 8 8 7 7 7
4 4 4 5 7 9 10 9 9 7 9 9 9 9 10 10 11 11 11 11 10 10 10 10 9 9 9 9 9 9 9 8 8 8 8 8 8 8 8 7 7 8 7 7 7 7 7 7 7
3 3 4 5 7 8 9 7 7 8 8 9 9 9 10 11 11 11 11 10 10 10 10 10 10 9 9 9 9 8 8 8 8 8 8 7 7 7 7 7 7 7 7 7 7 7 7 7 7
2 3 5 6 7 8 7 6 7 8 8 8 8 8 10 11 11 10 11 10 10 10 10 10 10 9 9 9 9 8 8 8 8 8 8 8 8 7 7 7 7 7 7 7 7 7 7 7 6
2 3 5 6 7 7 5 6 6 7 7 8 8 8 8 10 11 10 10 10 10 10 10 9 9 9 9 9 9 8 8 8 8 8 8 8 8 7 7 7 7 7 7 7 7 7 7 7 6
1 2 4 6 7 5 4 6 6 7 6 8 9 7 8 10 11 10 10 10 10 10 10 9 9 9 9 9 9 8 8 8 8 8 8 8 8 7 7 7 7 7 7 7 7 7 7 7 6
1 1 2 4 5 4 4 5 6 6 7 8 8 8 10 10 10 11 10 10 10 10 10 9 9 9 9 9 9 9 8 8 8 8 8 8 8 7 7 7 7 7 7 7 7 7 7 7 6
1 1 2 3 3 3 4 4 6 6 6 7 7 8 9 9 9 10 10 10 10 10 9 9 9 9 9 9 9 9 8 8 8 8 8 8 8 7 7 7 7 7 7 7 7 7 7 7 6
1 1 3 2 3 2 3 4 5 5 4 4 7 8 8 8 9 9 9 9 9 9 9 9 9 9 9 9 9 8 8 8 8 8 8 8 8 8 7 7 7 7 7 7 7 7 7 6 6
1 1 2 2 2 2 2 4 4 4 4 6 7 7 8 8 8 8 8 8 8 8 9 9 9 9 9 9 9 8 8 8 8 8 8 8 8 8 7 7 7 7 7 7 7 6 6 6 6
0 1 1 2 1 1 2 3 3 3 5 5 6 6 7 7 7 7 8 8 8 8 8 8 8 9 8 9 9 9 8 8 8 8 8 8 8 7 7 7 7 7 7 6 6 6 6 6 6
-1 0 1 1 0 2 1 2 2 3 4 4 5 6 6 7 7 7 8 8 8 8 8 8 8 8 8 8 8 8 8 8 8 8 8 7 7 7 7 7 6 6 6 6 6 6 6 5 5
-2 1 0 0 0 1 1 1 2 3 2 3 4 5 5 6 7 7 7 7 7 7 7 7 8 8 8 8 8 8 8 8 8 8 8 7 7 7 7 7 6 6 6 6 6 5 5 5 5
-1 -1 -1 1 1 -0 1 2 2 2 2 2 3 3 4 5 6 6 7 7 7 7 7 7 8 8 8 8 8 8 8 8 7 7 7 7 7 7 6 6 6 6 6 6 5 5 5 5 5
-0 -1 -0 1 -0 -0 2 2 1 2 2 4 4 3 3 4 5 6 6 7 7 6 6 7 7 7 7 7 7 7 7 7 7 7 7 6 6 6 6 6 6 6 6 6 5 5 5 5 5
1 3 2 1 -0 -0 1 2 1 2 2 3 4 4 3 3 4 5 5 6 6 6 6 6 6 6 6 7 7 7 7 7 7 7 6 6 6 6 6 6 6 6 6 6 5 5 5 5 5
2 3 3 2 0 -0 1 1 1 1 1 2 2 4 4 3 3 4 5 5 5 5 5 6 6 6 6 6 6 7 6 6 6 6 6 6 6 6 6 6 6 6 5 5 5 5 5 5 5
2 2 2 0 0 0 -0 0 0 1 2 2 2 3 3 3 3 4 4 5 5 5 5 5 6 6 6 6 6 6 6 6 6 6 6 6 6 6 6 6 6 6 5 5 5 5 5 5 4
2 3 3 1 0 -0 1 1 1 1 2 2 3 4 4 3 3 3 4 5 5 5 5 5 5 5 5 6 6 6 6 6 6 6 6 6 6 5 5 5 6 6 5 6 5 5 5 5 5
1 2 1 1 1 2 1 4 4 2 2 4 3 4 3 4 3 3 4 4 5 5 5 5 5 5 5 5 5 5 5 5 6 5 5 5 5 5 5 5 5 6 6 6 5 5 5 5 4
0 0 1 1 2 3 2 2 4 3 3 3 2 3 2 3 3 3 2 4 4 4 5 5 5 5 5 5 5 5 5 5 5 5 5 5 5 5 5 5 5 5 6 6 6 5 5 4 4
-0 -1 -0 0 1 2 2 2 4 5 3 3 3 3 2 2 3 3 3 3 4 4 5 4 4 4 5 5 5 5 5 5 4 4 5 5 5 5 5 6 6 6 6 5 5 5 4 4 4
-1 0 1 1 0 2 2 3 4 3 3 2 2 2 3 2 2 2 3 3 3 3 4 4 4 4 4 4 4 4 4 4 4 4 4 5 5 5 5 5 6 5 5 5 5 4 4 4 4
-1 1 2 2 2 3 1 2 3 3 3 3 3 3 3 3 3 2 2 3 3 3 3 3 3 3 3 3 3 4 4 4 4 4 4 4 5 5 5 5 5 5 5 5 5 4 4 4 4
-1 0 -1 1 1 3 3 2 3 2 3 3 3 3 3 3 3 3 3 2 3 2 2 2 2 3 3 3 3 3 3 3 3 3 4 4 5 5 5 5 5 5 4 4 4 4 4 4 4
-1 -1 -0 -0 1 3 3 3 5 2 2 2 2 3 3 3 3 3 3 3 3 3 2 1 1 2 2 2 2 3 3 3 3 3 4 4 4 5 4 4 4 4 4 4 4 4 4 4 3
-2 -2 -1 0 0 3 4 4 3 2 1 2 2 2 3 2 3 3 4 4 4 4 3 3 1 1 1 1 1 2 2 3 3 3 3 3 3 4 4 4 4 4 4 4 4 3 3 3 3
-2 -1 -0 0 0 1 1 3 2 1 2 2 2 2 2 3 3 3 3 3 3 3 3 3 2 1 1 1 1 1 2 2 2 2 3 3 3 3 4 4 4 4 4 4 3 3 3 2 2

GFSSGP_700_temp_060.txt.gz
Temp
5 5 5 5 6 6 7 9 10 9 10 9 10 10 10 11 12 12 11 11 11 11 11 11 10 10 10 10 9 9 9 9 9 9 9 9 9 9 9 9 9 9 9 9 9 8 8 8 8
5 4 5 5 5 6 8 9 10 10 9 9 10 10 10 11 11 12 11 11 10 10 10 10 10 10 10 9 9 9 9 9 9 9 9 9 9 9 9 9 9 8 8 8 8 8 8 8 8
4 4 4 5 5 6 9 10 10 9 9 9 9 9 9 10 10 11 11 11 10 10 10 10 10 9 9 9 9 9 9 8 8 8 8 8 8 8 8 8 8 8 8 8 8 7 7 7 7
4 3 4 4 5 8 9 10 10 9 9 8 8 7 9 8 10 11 10 10 10 10 10 10 10 9 9 9 9 9 9 8 8 8 8 8 8 8 8 8 8 8 7 7 7 7 7 7 7
3 3 4 4 5 7 9 9 8 8 9 8 7 7 8 8 8 10 10 10 10 10 10 9 9 9 9 9 9 9 8 8 8 8 8 8 7 7 7 7 7 7 7 7 7 7 6 6 6
2 2 3 4 5 7 8 8 8 8 8 8 7 8 7 8 8 9 10 10 10 10 9 9 9 9 9 9 9 9 8 8 8 8 8 8 7 7 7 7 7 7 7 6 6 6 6 6 6
1 3 3 4 6 7 6 6 8 8 8 8 7 8 6 7 7 9 9 9 10 10 9 9 9 9 9 9 9 8 8 8 8 8 8 7 7 7 7 7 7 7 7 7 7 6 6 6 6
2 2 3 5 6 7 4 5 7 7 7 8 8 7 7 7 6 8 9 8 10 10 9 9 9 9 9 9 9 8 8 8 8 8 8 8 7 7 7 7 7 7 7 7 7 7 6 6 6
1 1 2 4 6 6 4 5 6 6 7 7 8 8 7 7 6 8 9 8 9 10 9 9 9 9 9 9 9 8 8 8 8 8 8 8 7 7 7 7 7 7 7 7 7 7 7 6 6
1 1 2 4 5 4 4 5 6 6 6 7 7 8 8 7 6 6 8 9 9 10 10 9 9 9 9 9 8 8 8 8 8 8 8 8 8 7 7 7 7 7 7 7 7 7 7 6 6
1 1 2 3 3 3 3 4 5 5 5 5 7 8 8 7 7 6 6 7 9 9 9 9 9 9 9 9 9 8 8 8 8 8 8 8 8 8 8 7 7 7 7 7 7 7 6 6 6
0 1 1 2 2 2 3 4 4 4 5 7 7 7 7 7 7 7 7 7 7 8 9 9 8 9 9 9 9 8 8 8 8 8 8 8 8 8 8 7 7 7 7 7 7 6 6 6 6
1 1 1 1 2 1 2 3 4 4 4 6 6 7 7 7 7 7 7 8 7 7 8 9 8 8 9 9 9 9 8 8 8 8 8 8 8 8 8 7 7 7 7 6 6 6 6 6 6
1 1 1 1 1 1 2 2 4 4 4 5 5 6 7 7 7 7 7 7 8 8 8 8 8 8 8 9 9 9 8 8 8 8 8 8 8 7 7 7 7 7 7 6 6 6 6 6 6
-0 1 0 0 0 2 0 2 4 4 3 4 4 5 5 6 7 7 6 7 7 7 7 8 8 8 8 8 8 9 8 8 8 8 8 8 7 7 7 7 7 7 7 6 6 6 6 6 5
-0 -1 -1 -0 1 0 1 2 2 3 4 4 4 3 4 5 6 7 7 7 7 7 8 7 8 8 8 8 8 8 8 8 8 8 8 7 7 7 7 7 6 6 6 6 6 6 6 6 6
-1 -1 -2 -1 0 -0 1 1 2 3 3 4 4 4 3 4 5 6 7 7 7 7 6 7 8 8 8 8 8 8 8 8 8 7 7 7 7 7 7 6 6 6 6 6 6 6 6 6 5
-1 -1 -1 -1 0 1 1 2 2 2 3 3 4 4 4 4 5 5 6 6 7 6 7 6 7 7 7 8 7 7 7 7 7 7 7 7 7 7 6 6 6 6 6 6 6 5 5 5 5
0 1 0 1 -0 0 0 2 1 2 2 3 3 4 4 4 4 4 5 5 6 6 6 6 6 6 6 6 7 7 7 6 7 7 7 7 6 6 6 6 6 6 6 6 6 5 5 5 5
1 1 -0 1 0 1 0 1 1 2 2 2 3 2 3 4 4 3 5 5 5 5 6 6 6 6 6 6 6 6 6 6 6 6 6 6 6 6 6 6 6 6 6 6 5 5 5 5 5
-1 1 -0 1 1 -0 0 0 1 2 2 3 2 2 2 4 4 3 3 4 5 5 5 5 5 6 6 6 6 6 6 6 6 5 6 6 6 6 6 6 6 6 5 5 5 5 5 5 5
2 3 2 2 1 1 1 2 4 4 4 4 2 2 2 3 3 3 3 4 5 5 5 5 5 5 5 6 6 5 5 5 5 5 6 6 6 6 6 5 5 5 5 5 5 5 5 5 5
2 1 -1 1 1 2 1 2 4 4 3 4 3 3 3 3 3 3 3 3 4 5 4 4 4 5 5 5 5 5 5 5 5 5 5 5 5 5 5 5 5 5 5 5 5 5 5 5 5
1 1 1 1 2 -0 2 2 3 4 4 3 3 3 3 4 4 3 3 3 3 4 4 4 4 4 4 4 5 4 4 5 5 5 5 5 4 4 5 4 5 5 5 5 5 5 5 5 5
0 1 -0 -1 -2 -2 2 2 4 3 3 3 3 3 3 3 2 3 2 3 2 3 4 4 4 4 4 4 4 3 3 3 4 5 4 4 4 4 4 4 5 5 5 5 5 5 5 4 4
-0 1 1 0 -2 -0 2 2 3 3 3 3 3 3 3 3 2 2 4 3 3 3 2 3 3 3 4 3 3 3 3 3 3 3 3 3 4 4 4 4 5 5 5 5 5 5 4 4 4
-0 0 -0 1 2 1 2 2 3 3 2 2 3 3 3 3 3 3 2 4 4 3 2 2 2 2 3 3 3 3 3 3 2 3 3 3 3 4 4 4 5 5 5 5 5 4 4 4 4
-1 -1 -0 1 -2 2 3 3 3 2 1 1 2 2 2 2 3 3 3 3 4 3 2 2 2 2 2 2 2 2 2 2 2 3 3 3 3 3 4 4 4 4 4 4 4 4 4 4 4
-1 -1 -0 0 1 -1 -0 2 3 2 1 1 2 2 2 2 2 2 3 3 3 3 3 2 2 3 3 2 0 -0 0 1 1 1 2 2 2 3 3 4 4 4 4 4 4 3 3 3 3
-2 -1 -0 0 -0 0 1 2 2 2 2 1 1 1 1 2 2 2 2 2 2 3 3 3 3 2 2 2 1 0 1 1 0 0 1 2 2 3 3 3 3 3 3 3 3 3 2 3 3

GFSSGP_700_temp_063.txt.gz
Temp
4 4 5 5 5 6 6 8 8 8 7 8 9 9 10 10 11 12 12 11 11 11 11 10 10 10 10 9 9 10 9 9 9 9 9 9 9 9 9 9 9 9 8 8 8 8 8 8 8
4 4 4 5 5 5 7 9 8 8 7 9 9 9 9 9 10 12 12 11 10 11 10 10 10 10 10 9 9 9 9 9 9 9 9 9 9 9 9 9 9 8 8 8 8 8 8 7 7
3 3 4 4 5 5 6 8 8 9 8 7 8 8 8 9 9 12 11 10 10 10 10 10 10 10 10 9 9 9 9 9 9 9 9 8 8 8 8 8 8 8 8 8 8 7 7 7 7
3 3 4 4 5 6 8 9 9 9 8 8 8 8 7 8 9 11 10 10 10 10 10 10 10 10 9 9 9 9 9 8 8 8 8 8 8 8 8 8 8 8 7 7 7 7 7 6 6
1 2 3 4 5 7 7 7 8 9 9 9 7 7 6 7 7 10 9 9 9 9 9 9 10 9 9 9 9 8 8 8 8 8 8 8 8 7 7 7 7 7 7 7 6 6 6 6 6
1 1 3 4 5 7 6 7 8 8 8 9 8 7 6 6 6 8 9 9 9 9 9 9 9 9 9 9 9 8 8 8 8 8 8 8 7 7 7 7 7 6 6 6 6 6 6 6 6
1 1 3 4 5 6 5 6 8 8 8 7 8 8 7 7 6 7 9 9 9 9 9 9 9 9 9 9 9 9 8 8 8 8 8 8 7 7 7 7 7 7 6 6 6 6 6 6 6
1 1 2 3 4 5 5 6 7 7 7 7 7 7 8 7 5 5 6 8 8 8 9 9 9 9 9 9 9 8 8 8 8 8 8 8 7 7 7 7 7 7 7 6 6 6 6 6 6
1 1 2 3 4 5 5 6 6 7 7 7 7 7 7 7 6 5 5 7 8 8 8 8 9 9 9 9 9 8 8 8 8 8 7 8 8 7 7 7 7 7 7 7 7 6 6 6 6
0 0 2 3 4 5 5 5 6 6 7 7 7 7 7 7 6 6 5 6 7 8 8 8 8 9 9 8 8 8 8 8 8 8 8 8 8 7 7 7 7 7 7 7 7 7 6 6 6
0 0 2 3 3 4 4 5 5 6 6 7 7 7 7 7 7 6 6 5 6 7 7 8 8 8 8 8 8 8 8 8 8 8 8 8 8 8 8 7 7 7 7 7 7 6 6 6 6
1 1 1 2 2 3 4 4 5 5 6 7 7 8 7 7 7 7 7 6 5 6 6 8 8 8 8 8 8 8 8 8 8 8 8 8 8 8 8 8 7 7 7 7 6 6 6 6 5
0 -0 1 2 2 2 3 4 4 4 5 5 6 7 8 7 7 6 6 6 6 6 6 8 8 8 8 8 9 8 8 8 8 8 8 8 8 8 8 8 7 7 7 7 6 6 6 6 6
0 1 1 1 1 2 3 3 4 4 4 4 5 6 7 7 6 6 6 6 6 5 5 7 7 8 8 8 8 8 8 8 8 8 8 8 8 8 8 7 7 7 7 7 7 6 6 6 6
-0 -0 -0 0 0 1 2 3 3 3 3 4 5 6 6 7 6 6 6 6 6 6 6 7 7 7 8 8 8 8 8 8 8 8 8 8 8 8 7 7 7 7 7 6 6 6 6 6 6
-0 -1 -0 0 0 0 2 3 2 3 3 3 4 5 6 6 6 6 7 6 6 6 7 7 7 7 8 8 8 8 8 8 8 8 8 8 8 7 7 7 7 7 6 6 6 6 6 6 6
-1 -1 -1 -1 -0 0 1 2 2 3 3 4 4 4 5 6 5 6 6 6 7 7 7 7 7 7 7 7 8 8 8 8 8 8 8 7 7 7 7 7 7 6 6 6 6 6 6 6 6
-0 0 -0 -0 -1 -0 0 2 2 3 3 4 4 5 4 5 6 5 5 5 6 6 7 7 7 7 7 7 7 8 8 8 7 7 7 7 7 7 7 7 6 6 6 6 6 6 6 6 6
-0 -1 0 1 -0 -0 0 0 2 3 3 3 4 4 3 5 5 5 5 5 5 6 6 6 6 6 7 7 7 7 7 7 6 6 6 6 6 6 6 6 6 6 6 6 6 6 6 6 6
0 0 0 0 -1 -1 0 0 2 2 3 3 3 4 4 4 4 4 5 5 5 5 5 5 6 6 6 6 6 6 6 6 6 5 6 6 6 6 6 6 6 6 6 6 6 5 5 5 6
-1 -0 1 2 0 -1 -0 0 1 2 2 3 3 4 4 4 4 4 5 6 5 5 5 5 5 6 6 6 6 6 6 6 5 6 6 6 5 6 6 6 6 5 5 5 5 5 5 5 5
-1 -0 0 1 -1 0 0 0 3 4 3 2 3 4 4 2 3 4 4 4 5 4 4 5 6 5 5 6 6 6 5 5 5 5 5 5 5 5 5 5 5 5 5 5 5 5 5 5 5
1 1 1 1 1 1 1 0 3 4 4 3 4 3 3 3 3 4 4 4 4 4 4 4 5 5 5 5 5 5 5 4 5 5 5 5 5 5 5 5 5 5 5 5 5 5 5 5 5
-0 1 -1 -1 -1 -0 1 1 3 3 4 4 3 3 3 4 3 3 4 3 3 3 4 4 4 4 5 5 5 4 4 4 3 4 4 4 4 4 4 4 4 4 4 5 5 5 5 5 5
-1 1 -3 -2 -2 -1 1 2 3 3 3 3 3 3 3 3 2 3 3 3 3 3 3 3 4 4 4 4 4 4 4 4 3 3 3 3 3 4 4 4 4 4 4 4 5 5 5 5 5
0 1 0 -1 -3 -2 1 2 3 3 3 3 3 3 3 3 3 3 3 3 3 3 3 3 3 3 3 3 4 4 4 4 3 3 3 3 1 2 3 3 4 4 4 4 4 5 5 5 5
0 0 0 1 1 -0 2 2 2 2 3 3 3 3 3 3 2 2 2 2 3 3 3 3 3 2 2 3 3 3 3 3 2 2 1 2 2 2 2 3 3 3 4 4 4 4 4 5 4
-0 -1 0 0 -3 -0 0 2 2 2 2 3 3 3 3 3 3 2 2 2 2 3 2 3 3 1 2 1 1 1 2 2 2 1 1 1 2 2 2 2 3 3 3 3 3 4 4 4 4
-1 -1 0 0 0 -3 -2 1 2 2 3 2 2 2 1 1 1 2 2 2 2 2 2 2 2 1 2 2 2 1 1 1 1 1 1 0 1 1 1 2 2 3 3 3 3 3 3 3 3
-1 -1 -0 0 -0 0 0 1 1 2 2 2 1 0 -0 0 1 2 2 2 2 2 2 2 2 2 2 2 2 2 2 2 1 -0 -0 0 -0 0 0 0 0 3 3 3 3 3 3 3 3

GFSSGP_700_temp_066.txt.gz
Temp
3 4 4 5 4 4 6 7 9 8 8 8 8 9 10 10 11 11 12 11 11 11 11 10 10 9 9 10 9 9 9 9 9 10 10 9 9 8 8 8 8 8 8 8 8 8 8 8 7
3 3 4 4 5 5 6 7 7 6 7 7 8 8 9 9 11 11 12 11 11 10 10 10 10 9 9 9 9 9 9 9 9 9 9 9 9 9 9 8 8 8 8 8 8 7 7 7 7
2 3 3 3 4 5 6 7 6 7 6 6 6 7 9 10 10 11 11 11 10 10 10 10 10 9 9 9 9 9 9 9 9 9 9 9 8 8 8 8 8 8 8 7 7 7 7 7 7
0 1 2 3 4 6 6 7 6 5 5 5 6 7 8 8 10 11 10 10 10 10 10 10 10 9 9 9 9 9 9 8 8 8 8 8 8 8 8 8 8 7 7 7 7 6 6 6 6
0 0 1 3 5 5 6 7 6 4 5 5 5 6 6 9 9 9 10 10 10 10 10 10 10 10 9 9 9 9 8 8 8 8 8 8 8 8 7 7 7 7 7 6 6 6 6 6 6
-0 0 0 2 5 5 6 5 6 6 6 5 6 5 6 8 7 8 9 9 9 9 9 9 9 9 9 9 9 8 8 8 8 8 8 8 7 7 7 7 7 7 6 6 6 6 6 6 5
0 0 1 2 4 4 5 6 6 7 6 7 6 7 6 7 7 8 8 8 8 9 9 9 9 9 9 8 8 8 8 8 8 8 8 7 7 7 7 7 7 6 6 6 6 6 6 6 6
-0 1 0 2 3 4 5 7 6 7 7 7 7 7 7 6 6 6 7 7 8 8 8 8 9 9 8 8 8 8 8 8 8 8 8 7 7 7 7 7 7 6 6 6 6 6 6 6 6
-0 0 0 2 3 4 5 6 6 6 7 8 7 7 8 7 5 5 6 6 7 8 8 8 8 8 8 8 8 8 8 8 8 8 8 7 7 7 7 7 7 7 7 6 6 6 6 6 6
-0 0 0 2 3 4 5 7 6 6 6 7 8 7 7 6 6 6 5 6 7 7 8 8 8 8 8 8 8 8 8 8 8 8 8 7 7 7 7 7 7 7 7 7 6 6 6 6 6
-0 -0 1 1 3 4 4 5 6 6 6 6 7 7 8 7 7 7 7 5 6 6 7 8 8 8 8 8 8 8 8 8 8 8 8 8 7 7 7 7 7 7 7 7 6 6 6 6 5
-0 0 0 1 3 4 4 5 5 6 6 6 6 7 7 7 8 8 7 5 4 5 6 7 8 8 8 8 7 7 7 7 8 8 8 8 8 8 7 8 7 7 7 7 6 6 6 6 6
-0 0 1 1 2 3 3 4 5 6 6 6 7 6 6 6 7 8 8 6 5 5 5 6 7 7 8 8 8 8 8 8 8 8 8 8 8 8 8 8 7 7 7 7 7 6 6 6 6
-0 1 1 0 1 3 3 4 4 5 5 6 6 7 7 6 7 7 8 7 6 6 5 5 5 6 7 8 8 8 8 8 8 8 8 8 8 8 8 7 7 7 7 7 6 6 6 6 6
-1 -0 0 -0 1 2 3 3 4 4 5 5 6 6 6 6 5 6 7 7 6 5 6 4 4 5 5 7 8 8 8 8 8 8 8 8 8 8 8 7 7 7 7 7 6 6 6 6 6
-1 -0 -1 -1 0 1 2 2 3 3 4 4 5 5 6 6 5 6 6 6 6 5 5 5 5 4 5 6 7 7 8 8 8 8 8 8 8 7 7 7 7 7 7 6 6 6 6 6 6
-1 -1 -1 -1 0 -0 1 1 2 3 3 4 4 5 5 6 6 6 6 6 6 6 6 6 6 5 6 7 5 7 7 8 8 8 8 7 7 7 7 7 7 6 6 6 6 6 6 6 6
-1 -2 -1 -1 -1 -1 -0 0 1 2 3 3 4 4 5 5 6 6 6 6 6 6 6 6 6 5 6 6 6 7 7 7 7 7 7 7 7 7 7 7 6 6 6 6 6 6 6 6 6
-1 -1 -1 -2 -1 -0 -0 -0 0 1 3 3 3 4 4 4 5 5 5 5 5 5 5 5 5 6 6 6 7 7 7 7 7 7 7 7 7 6 6 6 6 6 6 6 6 6 6 6 6
-1 -1 -2 -2 -1 -1 -1 1 1 2 3 3 3 4 4 3 4 5 5 5 5 5 5 5 5 5 6 6 6 6 6 6 6 6 6 6 6 6 6 6 6 6 6 6 6 6 6 6 6
-2 -1 0 0 -0 -1 -1 -0 1 2 2 3 4 4 4 4 4 4 5 5 5 5 5 5 5 5 6 5 5 5 5 6 6 6 6 6 5 5 5 5 6 6 6 6 5 5 5 6 5
-1 -0 -0 0 -0 0 0 -0 2 3 3 3 4 4 4 4 5 4 4 4 5 5 5 5 5 5 5 5 5 5 5 5 4 4 4 5 5 5 5 5 5 5 5 5 5 5 5 5 5
-0 -0 0 0 -0 -0 -0 -0 2 3 3 4 4 3 4 4 5 4 4 4 4 3 4 4 4 4 5 5 5 5 5 4 3 3 4 4 4 4 3 3 4 4 4 4 4 4 4 5 5
-0 -1 -1 -1 -1 -1 0 -0 3 3 4 4 4 3 3 3 3 3 3 3 3 3 3 3 3 4 4 4 5 5 4 4 4 3 3 3 3 3 3 2 3 4 3 3 3 4 4 4 5
-1 -1 -3 -2 -2 -1 1 0 2 3 3 3 3 3 3 3 3 2 2 2 3 3 3 3 3 3 3 4 4 4 3 4 4 3 2 3 3 2 2 2 2 2 2 2 3 4 4 4 5
-2 -0 -2 -1 -3 -1 0 1 2 2 3 3 3 3 3 3 3 3 3 3 2 3 3 3 3 3 3 3 3 3 3 3 3 3 3 2 3 3 2 2 3 3 3 2 3 3 4 4 4
-2 -1 0 -1 -1 -0 1 1 1 2 2 2 2 2 2 2 2 2 3 2 3 2 2 2 2 2 2 2 2 2 3 2 2 2 2 2 2 1 1 0 1 1 1 2 2 3 3 4 4
-0 0 0 1 -3 -1 -1 1 1 1 2 2 3 2 2 2 2 2 2 2 2 2 2 2 2 2 2 3 1 2 2 2 1 1 1 1 0 0 0 -1 1 1 1 2 2 3 3 3 3
-0 0 0 1 -0 -3 -2 1 2 2 2 2 2 1 1 1 1 1 1 2 2 2 2 2 2 2 2 2 1 1 1 1 0 1 1 1 0 0 -0 -1 -0 0 0 0 2 2 3 3 3
-0 -0 0 1 -0 -0 -1 0 2 1 1 0 0 0 0 1 1 1 1 1 1 1 1 2 2 2 3 2 1 1 1 1 1 1 1 1 1 0 -0 -0 0 1 0 0 1 1 2 2 2

GFSSGP_700_temp_069.txt.gz
Temp
3 3 3 3 3 2 4 5 6 7 6 7 8 8 9 10 11 11 12 11 11 11 11 10 9 8 9 9 9 10 10 10 9 9 9 8 8 8 7 7 7 8 8 8 8 8 7 7 7
2 2 3 2 3 3 3 6 6 6 5 6 7 8 8 9 10 11 12 12 11 10 10 10 9 9 9 9 9 9 9 9 9 9 9 9 8 8 8 8 8 8 8 8 7 7 7 7 7
2 1 1 2 2 3 4 6 6 6 6 6 6 7 7 9 10 10 11 11 11 10 10 9 9 9 9 9 9 9 9 9 9 9 9 9 8 8 8 8 8 8 7 7 7 7 7 6 6
2 1 1 0 1 4 5 6 6 6 4 4 5 6 7 9 10 10 11 11 11 10 10 9 9 9 9 9 9 9 8 8 8 8 8 8 8 8 8 7 7 7 7 7 6 6 6 6 6
1 0 1 0 1 4 4 5 6 6 5 5 5 5 5 7 8 9 10 10 10 9 9 9 9 9 9 9 9 9 8 8 8 8 8 8 8 7 7 7 7 7 6 6 6 6 6 6 5
1 1 0 0 2 4 4 6 6 6 5 5 3 4 5 6 8 9 9 10 9 9 9 9 9 9 9 9 8 8 8 8 8 8 7 7 7 7 7 7 6 6 6 6 6 6 6 5 5
0 0 0 1 2 2 4 5 6 6 6 5 6 5 5 5 7 7 8 8 8 8 9 9 9 9 8 8 8 8 8 8 8 8 7 7 7 7 7 7 6 6 6 6 6 6 6 5 5
0 0 -0 0 2 2 4 6 5 6 6 6 6 4 5 6 6 6 6 7 8 8 8 9 8 8 8 8 8 8 8 8 8 8 7 7 7 7 7 7 6 6 6 6 6 6 6 6 5
-1 0 -0 0 2 2 4 5 6 6 6 5 6 6 6 5 5 6 5 6 6 7 8 8 8 8 8 8 8 8 8 7 7 7 7 7 7 7 7 7 6 6 6 6 6 6 6 6 6
-1 -0 0 -0 2 2 4 5 6 5 5 6 6 5 5 4 3 4 5 5 6 6 7 7 8 8 8 8 8 8 7 7 7 7 7 7 7 7 7 7 7 7 6 6 6 6 6 6 5
-1 -0 0 0 1 2 4 5 5 6 5 5 5 5 5 6 6 5 4 5 5 5 6 7 7 7 7 7 7 7 7 7 7 7 7 7 7 7 7 7 7 7 7 6 6 6 6 5 5
-2 -0 0 0 0 2 3 4 5 5 6 5 6 5 5 5 6 6 5 3 4 4 5 6 7 7 7 7 7 7 7 7 7 7 7 7 7 7 7 7 7 7 7 7 7 6 6 6 6
-1 -1 0 -0 0 2 3 4 5 5 6 6 5 5 5 6 7 7 6 6 5 5 4 5 6 6 7 7 7 7 7 7 7 7 7 7 7 7 7 7 7 7 7 7 7 6 6 6 6
-0 -1 -0 -0 1 2 3 4 5 5 6 6 5 5 5 5 6 6 6 6 5 5 5 4 4 4 5 6 7 7 7 7 7 7 7 7 7 7 7 7 7 7 7 7 6 6 6 6 6
-1 -1 0 0 0 2 3 3 4 5 5 6 6 6 6 6 6 6 6 5 5 5 4 3 4 4 4 6 5 6 6 7 7 7 7 7 7 7 7 7 7 7 7 7 6 6 6 6 6
-1 -2 -0 -0 1 1 2 3 3 4 4 5 5 6 5 6 6 6 5 6 5 5 4 5 5 5 3 4 4 4 4 6 7 7 7 7 7 7 7 7 7 7 7 7 6 6 6 6 6
-2 -2 -1 -1 -0 -0 1 2 3 3 4 5 5 5 6 5 5 6 5 5 5 5 4 4 5 6 4 4 4 4 5 5 6 7 7 7 7 7 7 7 7 7 7 6 6 6 6 6 6
-2 -3 -1 -1 -1 -1 -0 1 2 2 3 4 4 5 5 6 6 6 5 5 5 5 6 5 5 5 5 4 4 4 4 6 7 7 7 7 7 7 7 7 6 6 6 6 6 6 6 6 6
-1 -1 -1 -1 -1 -1 -0 -0 1 2 2 3 4 4 5 5 5 5 5 5 5 5 5 5 5 5 5 5 4 5 5 5 6 6 6 6 6 6 6 6 6 6 6 6 6 6 6 6 6
-2 -2 -2 -1 -1 0 -1 -0 1 1 2 2 3 4 4 5 5 5 4 5 5 5 5 5 5 5 6 5 4 5 5 5 6 6 6 6 6 6 5 5 5 5 5 5 5 6 6 6 5
-1 -1 -2 -2 -2 -0 -1 -0 0 0 -0 2 3 3 4 4 4 4 4 4 4 5 5 5 5 5 6 6 5 6 5 5 5 6 6 5 5 4 5 4 4 4 4 5 5 5 5 5 5
-2 -1 -0 -2 -2 -2 -1 -1 1 -0 1 3 3 4 4 4 4 4 4 4 4 4 4 4 4 4 5 5 4 5 5 5 5 5 4 5 4 4 3 3 4 4 3 4 4 4 4 4 4
-1 -1 -1 -1 -2 -1 -1 -1 2 1 2 3 4 4 4 4 4 4 4 4 3 3 4 4 4 4 4 4 4 4 3 4 4 4 3 3 3 3 3 3 2 3 3 3 3 3 4 4 4
-1 -1 -2 -2 -1 -1 -1 -0 2 2 3 4 4 4 3 3 3 3 3 3 3 3 3 3 3 3 3 4 4 4 4 3 3 3 3 3 3 3 3 2 2 2 2 1 2 2 3 3 3
-1 -1 -2 -2 -2 -2 -1 -0 1 2 3 3 4 4 3 3 3 3 2 3 2 3 3 2 3 3 3 3 3 3 3 3 3 2 3 3 3 3 2 2 2 1 2 2 2 2 2 2 3
-1 -1 -1 -2 -2 -3 -1 0 1 2 3 3 3 3 3 3 3 2 2 2 2 2 2 2 2 2 3 3 3 3 3 2 2 2 2 2 3 2 2 1 1 1 1 1 1 2 2 2 2
-2 -2 -0 -1 -1 -0 -0 1 1 1 2 2 2 3 3 3 2 2 2 2 2 2 2 2 2 2 2 2 2 2 2 2 2 2 2 2 1 1 0 1 1 0 0 1 -0 1 1 1 2
-1 -1 -1 1 -2 -1 -1 0 1 2 2 2 2 2 1 1 1 2 2 2 2 2 1 1 2 2 2 2 2 2 2 2 2 2 2 1 1 0 0 -0 0 1 1 0 -0 0 1 1 1
-1 -0 0 0 -0 -3 -2 0 1 1 1 1 0 0 0 0 1 1 1 2 2 1 1 1 1 1 1 2 2 2 2 1 1 1 2 1 0 0 -0 1 1 -0 -0 -0 -0 0 0 1 1
-0 0 0 1 -1 -1 -1 -1 1 0 -0 -0 0 0 0 1 1 1 1 1 1 1 1 1 1 2 2 2 2 2 2 1 1 1 1 1 0 1 0 0 0 0 1 0 0 -0 1 1 1